Regional Weather Roundup
Issued by NWS

Home | Current Version | Previous Version | Text Only | Print | Product List | Glossary Off
Versions: 1 2 3 4 5 6 7 8 9 10 11 12 13 14 15 16 17 18 19 20 21 22 23 24 25 26 27 28 29 30 31 32 33 34 35 36 37 38 39 40 41 42 43 44 45 46 47 48 49 50

000
ASUS43 KMKX 280521
RWRWI

WISCONSIN REGIONAL WEATHER ROUNDUP
NATIONAL WEATHER SERVICE MILWAUKEE/SULLIVAN WI
1100 PM CST TUE JAN 27 2015

NOTE: "FAIR" INDICATES FEW OR NO CLOUDS BELOW 12,000 FEET WITH NO
SIGNIFICANT WEATHER AND/OR OBSTRUCTIONS TO VISIBILITY.

WIZ001-002-006>008-014>016-023>028-280600-
NORTHWEST WISCONSIN

CITY           SKY/WX    TMP DP  RH WIND       PRES   REMARKS
SUPERIOR ARPT  CLOUDY    29  24  81 S6        30.14S WCI  23
ASHLAND        CLOUDY    28  21  75 S3        30.16S
HAYWARD        CLOUDY    26  20  77 S6        30.14S WCI  19
SIREN          PTCLDY    25  20  80 S3        30.14S
CUMBERLAND     PTCLDY    23  19  86 SE7       30.13S WCI  15
RICE LAKE      PTCLDY    25  20  83 SE6       30.16F WCI  18
CHETEK         PTCLDY    24  21  85 SE6       30.16S WCI  17
LADYSMITH      CLOUDY    26  22  86 S5        30.18R WCI  20
EAU CLAIRE     CLOUDY    26  20  77 SE8       30.17F WCI  18
MENOMONIE      CLOUDY    26  21  80 SE7       30.17F WCI  19
NEW RICHMOND   CLOUDY    28  23  82 S12       30.14S WCI  17
OSCEOLA        CLOUDY    29  24  83 SE12      30.16S WCI  19
$$

WIZ003>005-009-010-017-018-280600-
NORTH CENTRAL WISCONSIN

CITY           SKY/WX    TMP DP  RH WIND       PRES   REMARKS
MANITOWISH WTR CLOUDY    22  20  91 S5        30.14R WCI  16
ARBOR VITAE    CLOUDY    23  20  86 SW6       30.15R WCI  16
WOODRUFF       CLOUDY    23  20  86 SW6       30.15R WCI  16
RHINELANDER    CLOUDY    22  17  81 S6        30.16R WCI  14
EAGLE RIVER    CLOUDY    22  17  83 CALM      30.14S
LAND O LAKES   CLOUDY    23  19  87 S3        30.15R
PHILLIPS       CLOUDY    23  19  87 S6        30.15R WCI  15
TOMAHAWK       CLOUDY    22  19  85 CALM      30.17R
MEDFORD        CLOUDY    23  19  86 S6        30.16S WCI  16
MERRILL        CLOUDY    24  20  87 S5        30.18R WCI  18
$$

WIZ029-030-035-036-043>047-280600-
CENTRAL WISCONSIN

CITY           SKY/WX    TMP DP  RH WIND       PRES   REMARKS
WAUSAU         CLOUDY    23  20  88 S6        30.18S WCI  16
MOSINEE        CLOUDY    23  23 100 S6        30.19S WCI  16
MARSHFIELD     CLOUDY    25  22  88 S7        30.18F FOG     WCI  17
STEVENS POINT  CLOUDY    22  18  85 S3        30.22R
WAUPACA        CLOUDY    26  19  75 CALM      30.23S
WAUTOMA        CLOUDY    23  22  96 CALM      30.23F
WISC RAPIDS    CLOUDY    24  19  81 S3        30.23R
CAMP DOUGLAS   CLOUDY    27  27 100 SE3       30.21R
$$

WIZ011>013-019>022-031-037>040-048>050-280600-
NORTHEAST WISCONSIN

CITY           SKY/WX    TMP DP  RH WIND       PRES   REMARKS
ANTIGO         CLOUDY    21  18  89 S6        30.17F WCI  13
SHAWANO        CLOUDY    25  17  73 CALM      30.24R
OCONTO         MOCLDY    11  10  93 CALM      30.26R
STURGEON BAY   MOCLDY    16  14  93 CALM      30.26R
GREEN BAY      CLOUDY    17  14  88 CALM      30.24F
MANITOWOC      CLOUDY    24  18  77 SW3       30.24F
APPLETON       CLOUDY    23  18  80 S3        30.23S
CLINTONVILLE   CLOUDY    23  18  80 CALM      30.23R
OSHKOSH        CLOUDY    22  16  78 S3        30.23F
$$

WIZ032>034-041-042-053>061-280600-
SOUTHWEST WISCONSIN

CITY           SKY/WX    TMP DP  RH WIND       PRES   REMARKS
LA CROSSE      CLOUDY    29  22  75 SE8       30.21S WCI  21
SPARTA         CLOUDY    26  22  84 CALM      30.22F
VIROQUA        CLOUDY    25  22  89 S6        30.18F WCI  18
BOSCOBEL       CLOUDY    28  22  78 S3        30.23S
PRAIRIE DU CHI CLOUDY    28  21  76 SE7       30.23S WCI  20
PLATTEVILLE    CLOUDY    27  24  89 S6        30.22R WCI  21
$$

WIZ056-057-062-063-064-067-068-280600-
SOUTH CENTRAL WISCONSIN

CITY           SKY/WX    TMP DP  RH WIND       PRES   REMARKS
REEDSBURG      CLOUDY    26  24  93 CALM      30.23R FOG
BARABOO/DELLS  CLOUDY    26  23  89 CALM      30.22R FOG
LONE ROCK      CLOUDY    28  25  88 CALM      30.24R FOG
MINERAL POINT  CLOUDY    28  27  93 S3        30.21R FOG
MADISON        CLOUDY    26  21  81 SE5       30.23S WCI  20
MIDDLETON      CLOUDY    28  24  83 S3        30.22S
WATERTOWN      CLOUDY    24  19  80 SE3       30.24F
MONROE         CLOUDY    28  27  93 SE3       30.21S FOG
JANESVILLE     CLOUDY    28  21  74 SE7       30.24F WCI  21
$$

WIZ051-052-058>065-066-070>072-280600-
SOUTHEAST WISCONSIN

CITY           SKY/WX    TMP DP  RH WIND       PRES   REMARKS
MILWAUKEE      CLOUDY    27  18  69 E5        30.25S WCI  22
WAUKESHA       CLOUDY    23  18  80 CALM      30.25S
MILWAUKEE/TIMM CLOUDY    27  18  69 NW3       30.27R
RACINE         CLOUDY    27  19  72 CALM      30.27S
BURLINGTON     PTCLDY    14  12  92 CALM      30.26S
KENOSHA        PTCLDY    25  19  78 NE3       30.26R
FOND DU LAC    CLOUDY    23  16  74 S5        30.23F WCI  17
SHEBOYGAN      CLOUDY    25  19  78 CALM      30.24F
WEST BEND      CLOUDY    25  18  74 CALM      30.24S
JUNEAU         CLOUDY    24  19  79 SE5       30.24S WCI  18
$$

LSZ147-162-280600-
LAKE SUPERIOR

STATION/POSITION TIME  TEMP    WIND        PRES    WAVE
                       AIR SEA DIR/SP/G            HT/PER
                 (UTC) (F)     (DEG/KT/KT) (MB)    (FT/S)
DEVILS ISLAND    0500   29     180/  4/  6 1022.1S
PORT WING        0440   29     160/  5/  6 1021.0S
SAXON HARBOR     0400   28        CALM     1021.7R
$$

LMZ867-665-643>646-280600-
LAKE MICHIGAN

STATION/POSITION TIME  TEMP    WIND        PRES    WAVE
                       AIR SEA DIR/SP/G            HT/PER
                 (UTC) (F)     (DEG/KT/KT) (MB)    (FT/S)
NORTHPORT PIER   0502   19     230/  2/  4 1024.0R
SISTER BAY       0413   15        CALM       N/A
KEWAUNEE LAKESHO 0500   23     260/  3/  5 1022.9F
SHEBOYGAN LAKESH 0500   27      CALM  /  1 1025.3F
PORT WASHINGTON  0400   27        CALM     1025.4
MILWAUKEE LAKESH 0500   28      80/  3/  4   N/A
KENOSHA   LAKESH 0500   28      CALM  /  2 1024.7S
$$

TC  - TEMPERATURE IN CELSIUS
VSB - VISIBILITY IN STATUTE MILES
WCI - WIND CHILL INDEX
HX  - HEAT INDEX




USA.gov is the U.S. government's official web portal to all federal, state and local government web resources and services.